STARLINK-3754, 52350

Orbit data source: Space-Track

STARLINK-3754, 52350 is a payload satellite owned by SpaceX/Seattle (US) in LEO that was launched on Fri, 29 Apr 2022 UTC via an FALCON 9 launch vehicle from the Air Force Eastern Test Range (AFETR). Payload-class satellites include a variety of spacecraft equipped with specific instruments for various scientific and technological missions. These include communications satellites like Starlink; space stations such as the ISS; scientific satellites like the Hubble; Earth observation satellites from companies like Planet Labs, Umbra, and HawkEye 360; GPS; miniature CubeSats for education and research; and military/defense satellites.

Loading next visibility...
Identifier
52350, 2022-045V
Orbit
LEO
Country
Flag of USUS
Related business
Manufacturer
SpaceX/Seattle
Mission
Operational Commercial Communications
Bus & Motor
STARLINK, Unknown motor
Mass
297 kg wet, ~275 kg dry
Launch date (UTC)
2022-04-29 (4 years ago)
Launch vehicle
FALCON 9
Launch site
Air Force Eastern Test Range (AFETR)
Object type
Payload
Rocket body
Debris
Shape & HBR
Box + 1 Pan, 10.1 m
Radar Cross Section
11.087 m², Large (>1 m²)

Expand to show TLE details & history
Last TLE update: 7 hours ago

TLE from 7 hours ago
0 STARLINK-3754
1 52350U 22045V   26119.83362351  .00001112  00000-0  87968-4 0  9995
2 52350  53.2180 329.5290 0001236  96.2182 263.8951 15.08841537223504
Epoch: 2026-04-29T20:00Z
TLE epoch observation values (Epoch: 2026-04-29T20:00:25.071Z)
Latitude
-0.00001°
Longitude
171.63562°
Altitude
540.727 km
Speed
7.593 km/s
True Right ascension
21h 58m 06s
True Declination
0° 00' 00"
Sunlit
Object was in daylight at epoch
Visualization orbit readout
Latitude
Unknown
Longitude
Unknown
Altitude
Unknown
Speed
Unknown
Apparent Right ascension
Unknown
Apparent Declination
Unknown
Sunlit
N/A
Visualization observer readout
Local Sidereal Time
10:29:19
Azimuth
Unknown
Elevation
Unknown
Doppler factor
Unknown
Orbital elements
Apogee altitude
540.839 km
Perigee altitude
539.128 km
Semi-major axis
6,918.121 km
Eccentricity
0.00012
Inclination
53.218°
RAAN
329.529°
Arg. of periapsis
96.2182°
True anomaly
263.88102°
Mean anomaly
263.8951°
Eccentric anomaly
263.88806°
Mean motion
3.77191 °/min
Orbital period
95.44 mins
BSTAR
0.000087968
Loading maneuver chart data...
Computing Atmospheric mass density...
Loading historical data...
Loading historical data...
Loading historical data...
Loading historical data...
Loading historical data...
Loading historical data...
Loading historical data...

Documentation

Showing up to 5 results
|